SM7GXQ Weather Reports


time (UTC)temp
C
wind
direction
speed
KPH
gust
KPH
rain 1hr
cm
rain 24hr
cm
rain mn
cm
humidity
%
barometer
mb
20260903203005 16 190 6.4 11.3 0.03 0.71 0.71 95 1002.0
20260903194504 16 192 1.6 8.0 0.03 0.71 0.71 94 1002.7
20260903191504 16 198 4.8 9.7 0.51 0.71 0.71 94 1003.0
20260903190005 16 193 3.2 11.3 0.64 0.71 0.71 94 1003.2
20260903183004 16 183 6.4 12.9 0.61 0.64 0.64 94 1003.6
20260903180004 16 188 3.2 11.3 0.03 0.05 0.05 93 1004.0
20260903173005 16 176 3.2 16.1 0.00 0.05 0.05 93 1004.5
20260903171504 16 179 4.8 12.9 0.03 0.05 0.05 93 1004.5
20260903164504 16 189 4.8 12.9 0.03 0.05 0.05 92 1004.7
20260903163005 16 181 4.8 12.9 0.03 0.05 0.05 91 1005.9
20260903161504 16 184 4.8 16.1 0.00 0.03 0.03 91 1005.9
20260903153005 16 198 3.2 16.1 0.00 0.03 0.03 91 1005.9
20260903151505 16 190 4.8 16.1 0.00 0.03 0.03 91 1006.7
20260903150004 16 184 6.4 22.5 0.00 0.03 0.03 90 1006.7
20260903140004 17 191 8.0 19.3 0.03 0.03 0.03 89 1007.4
20260903134505 17 190 6.4 19.3 0.03 0.03 0.03 89 1007.4
20260903133004 17 204 9.7 27.4 0.03 0.03 0.03 90 1007.4
20260903123005 18 194 6.4 14.5 0.00 0.00 0.00 80 1008.0
20260903121504 18 195 4.8 16.1 0.00 0.00 0.00 81 1008.0
20260903114505 18 192 3.2 14.5 0.00 0.00 0.00 80 1008.2
20260903113005 18 210 6.4 14.5 0.00 0.00 0.00 78 1008.8
20260903110005 18 221 1.6 11.3 0.00 0.00 0.00 78 1008.8
20260903101504 18 238 3.2 12.9 0.00 0.00 0.00 79 1009.5
20260903100004 18 207 3.2 12.9 0.00 0.00 0.00 78 1009.5
20260903084504 16 216 4.8 14.5 0.00 0.00 0.00 82 1010.1
20260903083005 16 229 4.8 12.9 0.00 0.00 0.00 83 1010.1
20260903071504 15 200 4.8 12.9 0.00 0.00 0.00 85 1010.6
20260903063005 15 230 4.8 14.5 0.00 0.00 0.00 85 1010.7
20260903054504 15 222 6.4 14.5 0.00 0.00 0.00 87 1010.7
20260903053005 15 233 4.8 12.9 0.00 0.00 0.00 87 1010.7
20260903051505 14 232 6.4 16.1 0.00 0.00 0.00 87 1010.7
20260903044504 14 253 4.8 12.9 0.00 0.00 0.00 88 1010.6
20260903041504 14 188 3.2 11.3 0.00 0.00 0.00 91 1010.7
20260903034504 14 238 3.2 11.3 0.00 0.00 0.00 91 1010.8
20260903030004 15 211 1.6 16.1 0.00 0.00 0.00 90 1010.9
20260903024504 15 236 4.8 19.3 0.00 0.00 0.00 90 1010.9
20260903014504 15 249 3.2 12.9 0.00 0.00 0.00 90 1010.9
20260903011504 15 233 3.2 9.7 0.00 0.00 0.00 90 1011.0
20260903004504 15 247 1.6 12.9 0.00 0.00 0.00 90 1011.0
20260903001505 15 212 3.2 12.9 0.00 0.00 0.00 90 1011.0
20260902223004 16 218 4.8 14.5 0.00 0.00 0.00 89 1011.0
20260902221505 16 230 4.8 16.1 0.00 0.00 0.00 89 1011.0
20260902214504 16 244 3.2 14.5 0.00 0.00 0.00 88 1011.0
20260902211504 16 248 3.2 16.1 0.00 0.00 0.00 88 1010.8
20260902204504 16 266 3.2 9.7 0.00 0.00 0.00 87 1010.8